Wolf Creek, OR

4:44 AM PST on February 27, 2017 (GMT -0800)
Sexton Summit

Weather History for KSXT - March, 2013

Change the Weather History Date:

Friday, March 15, 2013

  Actual Average Record
Temperature  
Mean Temperature 47 °F -  
Max Temperature 55 °F 45 °F 62 °F (2007)
Min Temperature 39 °F 33 °F 23 °F (2002)
Degree Days  
Heating Degree Days 18    
Moisture  
Dew Point 37 °F    
Average Humidity 74    
Maximum Humidity 96    
Minimum Humidity 47    
Precipitation  
Precipitation 0.00 in - - ()
Sea Level Pressure  
Sea Level Pressure 30.19 in    
Wind  
Wind Speed 4 mph (North)    
Max Wind Speed 10 mph    
Max Gust Speed 17 mph    
Visibility 9 miles    
Events Fog    
Averages and records for this station are not official NWS values.
T = Trace of Precipitation, MM = Missing Value Source: NWS Daily Summary

Daily Weather History Graph

Daily Weather History Graph

Search for Another Location

Airport or City:

Trip Planner

Search our weather history database for the weather conditions in past years. The results will help you decide how hot, cold, wet, or windy it might be!

Date:

Astronomy

Mar. 15, 2013 Rise Set
Actual Time 7:24 AM PDT 7:20 PM PDT
Civil Twilight 6:56 AM PDT 7:48 PM PDT
Nautical Twilight 6:24 AM PDT 8:21 PM PDT
Astronomical Twilight 5:50 AM PDT 8:54 PM PDT
Moon 9:12 AM PDT (3/15) 11:46 PM PDT (3/15)
Length of Visible Light 12h 51m
Length of Day
11h 55m
Waxing Crescent, 16% of the Moon is Illuminated
Mar 15
Waxing Crescent
Mar 19
First Quarter
Mar 27
Full
Apr 2
Last Quarter
Apr 10
New

Hourly Weather History & Observations

Time (PDT) Temp. Windchill Dew Point Humidity Pressure Visibility Wind Dir Wind Speed Gust Speed Precip Events Conditions
12:56 AM 42.1 °F 37.7 °F 33.1 °F 70% 30.21 in 10.0 mi NNW 6.9 mph - N/A   Scattered Clouds
1:56 AM 43.0 °F 41.3 °F 33.1 °F 68% 30.19 in 10.0 mi North 3.5 mph - N/A   Clear
2:56 AM 44.1 °F - 30.9 °F 60% 30.19 in 10.0 mi Calm Calm - N/A   Partly Cloudy
3:34 AM 44.6 °F 43.1 °F 33.8 °F 66% 30.22 in 10.0 mi NNE 3.5 mph - N/A   Mostly Cloudy
3:56 AM 44.1 °F 41.5 °F 34.0 °F 68% 30.17 in 10.0 mi North 4.6 mph - N/A   Scattered Clouds
4:43 AM 44.6 °F 42.2 °F 35.6 °F 71% 30.21 in 10.0 mi North 4.6 mph - N/A   Partly Cloudy
4:56 AM 43.0 °F 41.3 °F 36.0 °F 76% 30.18 in 10.0 mi North 3.5 mph - N/A   Scattered Clouds
5:40 AM 42.8 °F 41.1 °F 37.4 °F 81% 30.21 in 10.0 mi NNE 3.5 mph - N/A   Mostly Cloudy
5:56 AM 43.0 °F 40.3 °F 37.9 °F 82% 30.19 in 10.0 mi NNE 4.6 mph - N/A   Mostly Cloudy
6:09 AM 42.8 °F 40.1 °F 39.2 °F 87% 30.21 in 10.0 mi NNE 4.6 mph - N/A   Scattered Clouds
6:56 AM 42.1 °F 38.4 °F 39.0 °F 89% 30.20 in 10.0 mi ENE 5.8 mph - N/A   Partly Cloudy
7:54 AM 42.8 °F - 35.6 °F 76% 30.20 in 10.0 mi Calm Calm - N/A   Mostly Cloudy
7:56 AM 43.0 °F - 35.1 °F 74% 30.20 in 10.0 mi Calm Calm - N/A   Mostly Cloudy
8:56 AM 46.0 °F 44.8 °F 35.1 °F 66% 30.19 in 10.0 mi ESE 3.5 mph - N/A   Overcast
9:18 AM 46.4 °F - 33.8 °F 62% 30.21 in 10.0 mi Calm Calm - N/A   Scattered Clouds
9:56 AM 48.0 °F - 34.0 °F 58% 30.19 in 10.0 mi Calm Calm - N/A   Clear
10:56 AM 48.0 °F - 36.0 °F 63% 30.20 in 10.0 mi Calm Calm - N/A   Overcast
11:56 AM 51.1 °F - 37.9 °F 61% 30.20 in 10.0 mi Calm Calm - N/A   Clear
12:39 PM 50.0 °F - 37.4 °F 62% 30.22 in 10.0 mi Calm Calm - N/A   Mostly Cloudy
12:56 PM 48.9 °F - 37.0 °F 64% 30.20 in 10.0 mi Calm Calm - N/A   Mostly Cloudy
1:13 PM 50.0 °F - 37.4 °F 62% 30.21 in 10.0 mi Calm Calm - N/A   Scattered Clouds
1:56 PM 53.1 °F - 37.9 °F 57% 30.19 in 10.0 mi Variable 3.5 mph - N/A   Clear
2:56 PM 53.1 °F - 34.0 °F 48% 30.16 in 10.0 mi Calm Calm - N/A   Clear
3:56 PM 55.0 °F - 35.1 °F 47% 30.14 in 10.0 mi Calm Calm - N/A   Clear
4:56 PM 53.1 °F - 36.0 °F 52% 30.16 in 10.0 mi Calm Calm - N/A   Mostly Cloudy
5:56 PM 51.1 °F - 39.0 °F 63% 30.16 in 10.0 mi Calm Calm - N/A   Clear
6:56 PM 46.9 °F - 41.0 °F 80% 30.17 in 10.0 mi NNW 5.8 mph - N/A   Clear
7:56 PM 44.1 °F 39.5 °F 41.0 °F 89% 30.17 in 10.0 mi NNW 8.1 mph 17.3 mph N/A   Clear
8:56 PM 43.0 °F 37.2 °F 39.0 °F 86% 30.18 in 10.0 mi NNW 10.4 mph - N/A   Clear
9:56 PM 41.0 °F 35.8 °F 39.0 °F 93% 30.19 in 10.0 mi North 8.1 mph - N/A   Clear
10:48 PM 39.2 °F 32.5 °F 37.4 °F 93% 30.19 in 10.0 mi North 10.4 mph - N/A   Partly Cloudy
10:56 PM 39.9 °F 33.4 °F 37.9 °F 93% 30.19 in 3.0 mi NNW 10.4 mph - N/A   Mostly Cloudy
11:03 PM 39.2 °F 32.5 °F 37.4 °F 93% 30.19 in 2.0 mi NNW 10.4 mph - N/A   Mostly Cloudy
11:09 PM 39.2 °F 32.5 °F 37.4 °F 93% 30.19 in 1.2 mi NNW 10.4 mph - N/A   Overcast
11:21 PM 39.2 °F 32.5 °F 37.4 °F 93% 30.19 in 0.5 mi NNW 10.4 mph - N/A Fog Fog
11:45 PM 39.2 °F 32.5 °F 37.4 °F 93% 30.19 in 1.5 mi North 10.4 mph - N/A   Mostly Cloudy
11:50 PM 39.2 °F 33.6 °F 37.4 °F 93% 30.18 in 3.0 mi North 8.1 mph - N/A   Mostly Cloudy
11:56 PM 39.0 °F 32.8 °F 37.9 °F 96% 30.18 in 7.0 mi North 9.2 mph - N/A   Mostly Cloudy